• în Republica Moldova
  • Lista ţărilor
  • Pe 7 zile
  • Temperatura apei
  • Hartă satelitară
  • Meteo pe hartă
  • Widget-uri
  • user-avatar
    Intrare

    Meteo pe oră la Annaba

    Astăzi, 19 Iunie, Marţi

    Timp Temperatura Precipitaţii Vânt Presiune Umiditate
    00:00 +20°C° 0 mm 4 m/s 761 mmHg 83%
    01:00 +19°C° 0 mm 4 m/s 761 mmHg 85%
    02:00 +19°C° 0 mm 4 m/s 761 mmHg 86%
    03:00 +19°C° 0 mm 4 m/s 761 mmHg 86%
    04:00 +19°C° 0 mm 4 m/s 761 mmHg 86%
    05:00 +20°C° 0 mm 4 m/s 761 mmHg 83%
    06:00 +20°C° 0 mm 4 m/s 761 mmHg 79%
    07:00 +21°C° 0 mm 3 m/s 762 mmHg 74%
    08:00 +23°C° 0 mm 4 m/s 762 mmHg 68%
    09:00 +25°C° 0 mm 4 m/s 762 mmHg 63%
    10:00 +26°C° 0 mm 4 m/s 762 mmHg 58%
    11:00 +27°C° 0 mm 5 m/s 761 mmHg 56%
    12:00 +28°C° 0 mm 5 m/s 761 mmHg 53%
    13:00 +30°C° 0 mm 5 m/s 761 mmHg 49%
    14:00 +30°C° 0 mm 5 m/s 761 mmHg 51%
    15:00 +29°C° 0 mm 5 m/s 761 mmHg 53%
    16:00 +29°C° 0 mm 5 m/s 761 mmHg 54%
    17:00 +28°C° 0 mm 4 m/s 761 mmHg 59%
    18:00 +27°C° 0 mm 4 m/s 761 mmHg 63%
    19:00 +26°C° 0 mm 3 m/s 761 mmHg 68%
    20:00 +25°C° 0 mm 2 m/s 762 mmHg 75%
    21:00 +24°C° 0 mm 2 m/s 762 mmHg 82%
    22:00 +22°C° 0 mm 1 m/s 762 mmHg 89%
    23:00 +21°C° 0 mm 2 m/s 762 mmHg 90%

    Mâine, 20 Iunie, Miercuri

    Timp Temperatura Precipitaţii Vânt Presiune Umiditate
    00:00 +21°C° 0 mm 2 m/s 762 mmHg 91%
    01:00 +20°C° 0 mm 2 m/s 762 mmHg 93%
    02:00 +20°C° 0 mm 2 m/s 762 mmHg 92%
    03:00 +20°C° 0 mm 2 m/s 762 mmHg 91%
    04:00 +20°C° 0 mm 2 m/s 761 mmHg 90%
    05:00 +21°C° 0 mm 2 m/s 762 mmHg 84%
    06:00 +23°C° 0 mm 2 m/s 762 mmHg 78%
    07:00 +24°C° 0 mm 1 m/s 762 mmHg 72%
    08:00 +26°C° 0 mm 1 m/s 762 mmHg 64%
    09:00 +28°C° 0 mm 2 m/s 762 mmHg 56%
    10:00 +30°C° 0 mm 2 m/s 762 mmHg 48%
    11:00 +31°C° 0 mm 2 m/s 762 mmHg 46%
    12:00 +31°C° 0 mm 3 m/s 762 mmHg 43%
    13:00 +33°C° 0 mm 3 m/s 762 mmHg 41%
    14:00 +33°C° 0 mm 3 m/s 761 mmHg 42%
    15:00 +33°C° 0 mm 3 m/s 761 mmHg 43%
    16:00 +32°C° 0 mm 4 m/s 761 mmHg 44%
    17:00 +30°C° 0 mm 3 m/s 761 mmHg 48%
    18:00 +29°C° 0 mm 3 m/s 761 mmHg 52%
    19:00 +28°C° 0 mm 3 m/s 761 mmHg 56%
    20:00 +27°C° 0 mm 2 m/s 761 mmHg 61%
    21:00 +26°C° 0 mm 2 m/s 762 mmHg 66%
    22:00 +24°C° 0 mm 1 m/s 762 mmHg 72%
    23:00 +24°C° 0 mm 1 m/s 762 mmHg 71%

    Poimâine, 21 Iunie, Joi

    Timp Temperatura Precipitaţii Vânt Presiune Umiditate
    00:00 +24°C° 0 mm 1 m/s 762 mmHg 71%
    01:00 +24°C° 0 mm 1 m/s 761 mmHg 71%
    02:00 +24°C° 0 mm 1 m/s 761 mmHg 71%
    03:00 +24°C° 0 mm 1 m/s 761 mmHg 71%
    04:00 +23°C° 0 mm 1 m/s 761 mmHg 72%
    05:00 +24°C° 0 mm 1 m/s 761 mmHg 68%
    06:00 +25°C° 0 mm 1 m/s 761 mmHg 65%
    07:00 +26°C° 0 mm 1 m/s 761 mmHg 61%
    08:00 +28°C° 0 mm 1 m/s 761 mmHg 55%
    09:00 +30°C° 0 mm 1 m/s 761 mmHg 49%
    10:00 +33°C° 0 mm 1 m/s 761 mmHg 42%
    11:00 +34°C° 0 mm 2 m/s 761 mmHg 40%
    12:00 +35°C° 0 mm 3 m/s 760 mmHg 38%
    13:00 +35°C° 0 mm 4 m/s 760 mmHg 36%
    14:00 +35°C° 0 mm 4 m/s 760 mmHg 37%
    15:00 +34°C° 0 mm 4 m/s 760 mmHg 38%
    16:00 +34°C° 0 mm 5 m/s 759 mmHg 40%
    17:00 +33°C° 0 mm 4 m/s 759 mmHg 43%
    18:00 +31°C° 0 mm 3 m/s 759 mmHg 46%
    19:00 +30°C° 0 mm 3 m/s 759 mmHg 49%
    20:00 +29°C° 0 mm 2 m/s 760 mmHg 53%
    21:00 +27°C° 0 mm 2 m/s 760 mmHg 57%
    22:00 +26°C° 0 mm 2 m/s 760 mmHg 60%
    23:00 +26°C° 0 mm 2 m/s 760 mmHg 62%

    22 Iunie, Vineri

    Timp Temperatura Precipitaţii Vânt Presiune Umiditate
    00:00 +25°C° 0 mm 1 m/s 760 mmHg 63%
    01:00 +25°C° 0 mm 1 m/s 760 mmHg 64%
    02:00 +25°C° 0 mm 1 m/s 760 mmHg 65%
    03:00 +24°C° 0 mm 1 m/s 759 mmHg 66%
    04:00 +24°C° 0 mm 1 m/s 759 mmHg 67%
    05:00 +25°C° 0 mm 1 m/s 759 mmHg 64%
    06:00 +24°C° 0 mm 0 m/s 759 mmHg 62%
    07:00 +25°C° 0 mm 0 m/s 759 mmHg 59%
    08:00 +28°C° 0 mm 1 m/s 760 mmHg 54%
    09:00 +30°C° 0 mm 1 m/s 760 mmHg 48%
    10:00 +32°C° 0 mm 2 m/s 760 mmHg 42%
    11:00 +34°C° 0 mm 2 m/s 760 mmHg 41%
    12:00 +34°C° 0 mm 3 m/s 759 mmHg 39%
    13:00 +35°C° 0 mm 4 m/s 759 mmHg 37%
    14:00 +35°C° 0 mm 4 m/s 759 mmHg 38%
    15:00 +35°C° 0 mm 4 m/s 759 mmHg 39%
    16:00 +34°C° 0 mm 4 m/s 759 mmHg 39%
    17:00 +33°C° 0 mm 3 m/s 759 mmHg 43%
    18:00 +31°C° 0 mm 3 m/s 759 mmHg 46%
    19:00 +29°C° 0 mm 2 m/s 759 mmHg 49%
    20:00 +28°C° 0 mm 2 m/s 759 mmHg 55%
    21:00 +26°C° 0 mm 1 m/s 760 mmHg 61%
    22:00 +22°C° 0 mm 0 m/s 760 mmHg 67%
    23:00 +24°C° 0 mm 1 m/s 760 mmHg 68%

    23 Iunie, Sâmbătă

    Timp Temperatura Precipitaţii Vânt Presiune Umiditate
    00:00 +24°C° 0 mm 1 m/s 760 mmHg 69%
    01:00 +23°C° 0 mm 1 m/s 760 mmHg 69%
    02:00 +23°C° 0 mm 1 m/s 760 mmHg 68%
    03:00 +23°C° 0 mm 1 m/s 760 mmHg 67%
    04:00 +23°C° 0 mm 1 m/s 760 mmHg 66%
    05:00 +24°C° 0 mm 1 m/s 760 mmHg 61%
    06:00 +25°C° 0 mm 1 m/s 760 mmHg 56%
    07:00 +26°C° 0 mm 1 m/s 761 mmHg 51%
    08:00 +28°C° 0 mm 1 m/s 760 mmHg 46%
    09:00 +30°C° 0 mm 2 m/s 760 mmHg 41%
    10:00 +32°C° 0 mm 2 m/s 760 mmHg 35%
    11:00 +34°C° 0 mm 2 m/s 760 mmHg 35%
    12:00 +35°C° 0 mm 3 m/s 760 mmHg 34%
    13:00 +36°C° 0 mm 4 m/s 760 mmHg 34%
    14:00 +35°C° 0 mm 4 m/s 759 mmHg 35%
    15:00 +35°C° 0 mm 4 m/s 759 mmHg 36%
    16:00 +35°C° 0 mm 4 m/s 759 mmHg 37%
    17:00 +33°C° 0 mm 3 m/s 759 mmHg 41%
    18:00 +31°C° 0 mm 2 m/s 759 mmHg 44%
    19:00 +30°C° 0 mm 2 m/s 759 mmHg 47%
    20:00 +28°C° 0 mm 1 m/s 759 mmHg 51%
    21:00 +27°C° 0 mm 1 m/s 759 mmHg 55%
    22:00 +23°C° 0 mm 0 m/s 760 mmHg 59%
    23:00 +23°C° 0 mm 0 m/s 759 mmHg 59%

    24 Iunie, Duminică

    Timp Temperatura Precipitaţii Vânt Presiune Umiditate
    00:00 +25°C° 0 mm 1 m/s 759 mmHg 59%
    01:00 +25°C° 0 mm 1 m/s 759 mmHg 59%
    02:00 +25°C° 0 mm 1 m/s 759 mmHg 61%
    03:00 +25°C° 0 mm 1 m/s 758 mmHg 62%
    04:00 +24°C° 0 mm 1 m/s 758 mmHg 63%
    05:00 +25°C° 0 mm 1 m/s 758 mmHg 62%
    06:00 +26°C° 0 mm 1 m/s 759 mmHg 60%
    07:00 +24°C° 0 mm 0 m/s 759 mmHg 59%
    08:00 +29°C° 0 mm 1 m/s 759 mmHg 53%
    09:00 +31°C° 0 mm 1 m/s 759 mmHg 47%
    10:00 +33°C° 0 mm 1 m/s 759 mmHg 41%
    11:00 +35°C° 0 mm 2 m/s 758 mmHg 39%
    12:00 +36°C° 0 mm 3 m/s 758 mmHg 37%
    13:00 +36°C° 0 mm 3 m/s 758 mmHg 35%
    14:00 +36°C° 0 mm 4 m/s 757 mmHg 37%
    15:00 +35°C° 0 mm 4 m/s 757 mmHg 39%
    16:00 +35°C° 0 mm 4 m/s 757 mmHg 41%
    17:00 +33°C° 0 mm 4 m/s 757 mmHg 46%
    18:00 +31°C° 0 mm 3 m/s 757 mmHg 50%
    19:00 +29°C° 0 mm 3 m/s 758 mmHg 55%
    20:00 +28°C° 0 mm 2 m/s 758 mmHg 61%
    21:00 +26°C° 0 mm 2 m/s 758 mmHg 68%
    22:00 +25°C° 0 mm 1 m/s 759 mmHg 74%
    23:00 +24°C° 0 mm 1 m/s 758 mmHg 75%
    Arată mai mult